1303689626797,104.298
1303689686797,104.484
1303689746797,104.559
1303689806797,104.888
1303689866797,104.852
1303689926797,105.020
1303689986797,104.698
1303690046797,104.955
1303690106797,105.298
1303690166797,104.525
1303690226797,104.336
1303690286797,104.611
1303690346797,104.817
1303690406797,104.765
1303690466797,104.873
1303690526797,105.341
1303690586797,104.902
1303690646797,105.047
1303690706797,104.890
1303690766797,105.423
1303690826797,104.633
1303690886797,104.736
1303690946797,105.146
1303691006797,105.119
1303691066797,105.532
1303691126797,105.237
1303691186797,105.235
1303691246797,104.651
1303691306797,105.256
1303691366797,105.432
1303691426797,105.330
1303691486797,105.766
1303691546797,105.153
1303691606797,105.440
1303691666797,105.476
1303691726797,105.661
1303691786797,105.253
1303691846797,105.548
1303691906797,105.567
1303691966797,105.212
1303692026797,105.075
1303692086797,105.252
1303692146797,105.432
1303692206797,105.196
1303692266797,105.563
1303692326797,105.144
1303692386797,105.164
1303692446797,105.146
1303692506797,105.100
1303692566797,105.547
1303692626797,105.457
1303692686797,105.941
1303692746797,105.522
1303692806797,105.183
1303692866797,105.649
1303692926797,105.398
1303692986797,105.889
1303693046797,105.376
1303693106797,105.174
1303693166797,105.751
1303693226808,104.978
1303693286808,105.158
1303693346808,105.563
1303693406808,105.524
1303693466808,105.640
1303693526808,105.402
1303693586808,105.404
1303693646808,105.145
1303693706808,105.272
1303693766808,104.945
1303693826808,105.268
1303693886808,105.275
1303693946808,105.752
1303694006808,105.286
1303694066808,105.211
1303694126808,104.788
1303694186808,105.000
1303694246808,105.209
1303694306808,105.346
1303694366808,104.891
1303694426808,105.227
1303694486808,105.159
1303694546808,105.359
1303694606808,105.096
1303694666808,105.309
1303694726808,105.722
1303694786808,105.205
1303694846808,105.281
1303694906808,104.655
1303694966808,105.341
1303695026808,105.007
1303695086808,105.361
1303695146808,104.924
1303695206808,105.058
1303695266808,105.242
1303695326808,105.565
1303695386808,104.772
1303695446808,104.458
1303695506808,105.132
1303695566808,105.138
1303695626808,105.249
1303695686808,105.451
1303695746808,105.766
1303695806808,105.624
1303695866808,105.684
1303695926808,105.350
1303695986808,105.393
1303696046808,105.399
1303696106808,105.398
1303696166808,105.359
1303696226808,105.299
1303696286808,105.277
1303696346808,105.697
1303696406808,105.311
1303696466808,105.598
1303696526808,105.581
1303696586808,105.148
1303696646808,105.607
1303696706808,105.091
1303696766808,105.478
1303696826819,105.516
1303696886819,105.057
1303696946819,105.480
1303697006819,105.920
1303697066819,105.896
1303697126819,105.422
1303697186819,105.508
1303697246819,105.146
1303697306819,105.412
1303697366819,105.534
1303697426819,105.354
1303697486819,105.211
1303697546819,104.645
1303697606819,104.877
1303697666819,105.195
1303697726819,105.397
1303697786819,105.487
1303697846819,105.246
1303697906819,105.382
1303697966819,105.156
1303698026819,105.656
1303698086819,105.595
1303698146819,105.990
1303698206819,105.206
1303698266819,105.481
1303698326819,104.995
1303698386819,105.872
1303698446819,106.086
1303698506819,105.669
1303698566819,105.380
1303698626819,105.588
1303698686819,105.738
1303698746819,106.079
1303698806819,105.847
1303698866819,106.072
1303698926819,106.284
1303698986819,106.353
1303699046819,105.547
1303699106819,105.972
1303699166819,106.397
1303699226819,106.394
1303699286819,105.831
1303699346819,105.700
1303699406819,106.157
1303699466819,106.181
1303699526819,105.684
1303699586819,105.684
1303699646819,106.381
1303699706819,106.030
1303699766819,105.731
1303699826819,106.225
1303699886819,106.044
1303699946819,106.559
1303700006819,105.846
1303700066819,105.589
1303700126819,106.056
1303700186819,105.836
1303700246819,106.071
1303700306819,105.548
1303700366819,105.531
1303700426830,105.865
1303700486830,105.721
1303700546830,105.629
1303700606830,106.288
1303700666830,106.073
1303700726830,105.851
1303700786830,106.221
1303700846830,106.170
1303700906830,105.353
1303700966830,105.653
1303701026830,105.678
1303701086830,106.307
1303701146830,105.801
1303701206830,106.002
1303701266830,105.923
1303701326830,106.145
1303701386830,106.270
1303701446830,106.210
1303701506830,105.630
1303701566830,105.763
1303701626830,106.692
1303701686830,106.064
1303701746830,106.052
1303701806830,106.697
1303701866830,105.774
1303701926830,106.506
1303701986830,105.929
1303702046830,105.861
1303702106830,105.979
1303702166830,105.936
1303702226830,106.349
1303702286830,106.250
1303702346830,105.905
1303702406830,106.009
1303702466830,105.998
1303702526830,106.201
1303702586830,105.736
1303702646830,105.956
1303702706830,105.955
1303702766830,106.132
1303702826830,106.102
1303702886830,106.534
1303702946830,105.975
1303703006830,106.379
1303703066830,106.377
1303703126830,105.752
1303703186830,106.298
1303703246830,106.175
1303703306830,105.588
1303703366830,106.269
1303703426830,106.346
1303703486830,106.308
1303703546830,106.539
1303703606830,106.057
1303703666830,106.220
1303703726830,106.387
1303703786830,106.575
1303703846830,106.349
1303703906830,106.079
1303703966830,106.393
1303704026841,106.192
1303704086841,106.509
1303704146841,106.340
1303704206841,106.523
1303704266841,106.054
1303704326841,106.453
1303704386841,106.157
1303704446841,106.355
1303704506841,106.137
1303704566841,106.101
1303704626841,106.166
1303704686841,106.369
1303704746841,105.560
1303704806841,106.301
1303704866841,105.947
1303704926841,106.330
1303704986841,106.344
1303705046841,106.230
1303705106841,106.591
1303705166841,105.810
1303705226841,106.184
1303705286841,105.500
1303705346841,106.159
1303705406841,105.954
1303705466841,106.140
1303705526841,106.377
1303705586841,106.393
1303705646841,106.198
1303705706841,106.280
1303705766841,105.621
1303705826841,106.491
1303705886841,106.116
1303705946841,106.400
1303706006841,105.924
1303706066841,106.358
1303706126841,106.187
1303706186841,105.822
1303706246841,105.914
1303706306841,106.491
1303706366841,105.859
1303706426841,106.012
1303706486841,106.487
1303706546841,106.109
1303706606841,106.066
1303706666841,106.349
1303706726841,106.368
1303706786841,106.759
1303706846841,106.480
1303706906841,106.176
1303706966841,106.500
1303707026841,106.346
1303707086841,106.630
1303707146841,106.874
1303707206841,106.479
1303707266841,106.419
1303707326841,106.748
1303707386841,106.448
1303707446841,106.235
1303707506841,106.670
1303707566841,106.489
1303707626852,105.946
1303707686852,106.353
1303707746852,106.539
1303707806852,107.109
1303707866852,106.510
1303707926852,106.960
1303707986852,106.708
1303708046852,106.778
1303708106852,106.723
1303708166852,106.109
1303708226852,106.636
1303708286852,106.742
1303708346852,106.785
1303708406852,106.568
1303708466852,106.563
1303708526852,106.630
1303708586852,106.219
1303708646852,106.817
1303708706852,106.446
1303708766852,106.983
1303708826852,106.658
1303708886852,107.098
1303708946852,106.921
1303709006852,107.013
1303709066852,107.022
1303709126852,107.243
1303709186852,107.380
1303709246852,107.022
1303709306852,106.857
1303709366852,107.047
1303709426852,107.028
1303709486852,106.815
1303709546852,107.393
1303709606852,106.969
1303709666852,107.034
1303709726852,106.878
1303709786852,106.764
1303709846852,107.392
1303709906852,106.804
1303709966852,107.061
1303710026852,107.049
1303710086852,106.928
1303710146852,107.228
1303710206852,107.126
1303710266852,107.102
1303710326852,107.283
1303710386852,107.358
1303710446852,107.356
1303710506852,106.689
1303710566852,107.225
1303710626852,107.235
1303710686852,106.947
1303710746852,107.361
1303710806852,107.123
1303710866852,107.209
1303710926852,107.504
1303710986852,107.655
1303711046852,107.497
1303711106852,106.792
1303711166852,106.651
1303711226863,107.424
1303711286863,107.026
1303711346863,107.262
1303711406863,107.193
1303711466863,106.928
1303711526863,106.874
1303711586863,107.542
1303711646863,107.076
1303711706863,107.431
1303711766863,107.248
1303711826863,107.102
1303711886863,107.744
1303711946863,107.350
1303712006863,106.850
1303712066863,107.000
1303712126863,107.004
1303712186863,107.301
1303712246863,107.238
1303712306863,107.082
1303712366863,107.089
1303712426863,106.887
1303712486863,107.726
1303712546863,107.316
1303712606863,107.378
1303712666863,107.477
1303712726863,107.638
1303712786863,106.758
1303712846863,107.216
1303712906863,107.239
1303712966863,107.140
1303713026863,107.137
1303713086863,107.017
1303713146863,107.179
1303713206863,107.160
1303713266863,107.190
1303713326863,106.961
1303713386863,106.743
1303713446863,107.355
1303713506863,106.842
1303713566863,107.556
1303713626863,106.917
1303713686863,107.082
1303713746863,107.375
1303713806863,107.445
1303713866863,107.108
1303713926863,107.722
1303713986863,107.410
1303714046863,106.895
1303714106863,106.901
1303714166863,106.902
1303714226863,107.430
1303714286863,106.626
1303714346863,107.218
1303714406863,106.906
1303714466863,107.061
1303714526863,107.156
1303714586863,106.961
1303714646863,107.671
1303714706863,107.228
1303714766863,107.044
1303714826873,106.807
1303714886874,106.820
1303714946874,107.095
1303715006874,106.850
1303715066874,106.805
1303715126874,107.338
1303715186874,107.197
1303715246874,107.122
1303715306874,106.848
1303715366874,106.861
1303715426874,106.994
1303715486874,107.052
1303715546874,107.280
1303715606874,107.041
1303715666874,106.771
1303715726874,106.751
1303715786874,107.097
1303715846874,107.168
1303715906874,106.787
1303715966874,107.028
1303716026873,107.009
1303716086873,106.358
1303716146873,106.944
1303716206873,107.298
1303716266874,106.765
1303716326874,106.631
1303716386874,107.045
1303716446874,106.705
1303716506874,106.957
1303716566874,107.968
1303716626874,107.095
1303716686874,107.107
1303716746874,107.920
1303716806874,107.416
1303716866874,107.549
1303716926874,107.601
1303716986874,107.518
1303717046874,107.379
1303717106874,107.603
1303717166874,107.720
1303717226874,107.238
1303717286874,107.759
1303717346874,107.237
1303717406873,107.852
1303717466873,107.513
1303717526873,107.859
1303717586874,107.776
1303717646874,107.733
1303717706874,107.518
1303717766874,108.141
1303717826874,107.419
1303717886874,108.076
1303717946874,107.986
1303718006874,108.243
1303718066874,108.041
1303718126874,108.206
1303718186874,107.822
1303718246874,107.727
1303718306874,107.982
1303718366874,108.163
1303718426884,108.737
1303718486884,107.635
1303718546884,108.590
1303718606884,108.312
1303718666884,108.218
1303718726884,108.329
1303718786884,108.479
1303718846884,107.901
1303718906884,108.057
1303718966884,107.891
1303719026884,108.317
1303719086884,108.089
1303719146884,108.392
1303719206884,108.673
1303719266884,108.860
1303719326884,109.006
1303719386884,108.704
1303719446884,107.968
1303719506884,108.420
1303719566884,108.800
1303719626884,108.335
1303719686884,108.576
1303719746884,108.032
1303719806884,108.327
1303719866884,108.708
1303719926884,108.615
1303719986884,108.433
1303720046884,108.163
1303720106884,109.059
1303720166884,108.248
1303720226884,108.730
1303720286884,108.666
1303720346884,108.589
1303720406884,108.546
1303720466884,108.430
1303720526884,108.524
1303720586884,108.795
1303720646884,108.214
1303720706884,108.374
1303720766884,108.422
1303720826884,108.613
1303720886884,108.600
1303720946884,108.648
1303721006884,108.437
1303721066884,108.328
1303721126884,108.804
1303721186884,108.332
1303721246884,107.956
1303721306884,108.341
1303721366884,108.106
1303721426884,107.986
1303721486884,108.121
1303721546884,108.606
1303721606884,108.423
1303721666884,109.273
1303721726884,109.115
1303721786884,108.123
1303721846884,108.374
1303721906884,108.641
1303721966884,108.815
1303722026895,108.235
1303722086895,108.517
1303722146895,107.985
1303722206895,108.551
1303722266895,108.638
1303722326895,107.961
1303722386895,108.059
1303722446895,109.033
1303722506895,108.630
1303722566895,108.747
1303722626895,108.435
1303722686895,108.486
1303722746895,107.970
1303722806895,108.456
1303722866895,109.123
1303722926895,108.069
1303722986895,108.566
1303723046895,108.628
1303723106895,108.336
1303723166895,108.236
1303723226895,108.858
1303723286895,108.516
1303723346895,108.468
1303723406895,108.122
1303723466895,108.745
1303723526895,108.653
1303723586895,108.465
1303723646895,108.125
1303723706895,108.790
1303723766895,108.381
1303723826895,108.765
1303723886895,108.867
1303723946895,108.827
1303724006895,108.930
1303724066895,108.403
1303724126895,109.027
1303724186895,109.108
1303724246895,108.849
1303724306895,108.804
1303724366895,109.428
1303724426895,109.289
1303724486895,108.824
1303724546895,109.073
1303724606895,108.293
1303724666895,108.820
1303724726895,108.584
1303724786895,109.493
1303724846895,109.018
1303724906895,108.795
1303724966895,108.925
1303725026895,109.028
1303725086895,108.929
1303725146895,109.038
1303725206895,108.638
1303725266895,108.860
1303725326895,108.342
1303725386895,108.868
1303725446895,108.934
1303725506895,108.847
1303725566895,108.752
1303725626905,108.763
1303725686905,109.032
1303725746905,108.607
1303725806905,108.885
1303725866905,108.948
1303725926905,109.404
1303725986905,108.735
1303726046905,108.846
1303726106905,108.740
1303726166905,108.957
1303726226905,108.335
1303726286905,108.643
1303726346905,108.949
1303726406905,108.633
1303726466905,109.082
1303726526905,109.516
1303726586905,108.798
1303726646905,108.888
1303726706905,108.510
1303726766905,108.595
1303726826905,108.514
1303726886905,108.699
1303726946905,108.683
1303727006905,109.030
1303727066905,108.351
1303727126905,108.470
1303727186905,109.242
1303727246905,108.751
1303727306905,108.649
1303727366905,108.461
1303727426905,108.175
1303727486905,108.273
1303727546905,108.343
1303727606905,108.835
1303727666905,108.729
1303727726905,108.614
1303727786905,108.314
1303727846905,108.394
1303727906905,109.054
1303727966905,107.841
1303728026905,108.034
1303728086905,107.836
1303728146905,107.888
1303728206905,107.981
1303728266905,108.192
1303728326905,108.249
1303728386905,108.414
1303728446905,108.237
1303728506905,107.944
1303728566905,107.645
1303728626905,107.989
1303728686905,107.885
1303728746905,107.554
1303728806905,107.935
1303728866905,107.923
1303728926905,107.644
1303728986905,107.184
1303729046905,107.792
1303729106905,108.101
1303729166905,107.224
1303729226916,108.364
1303729286916,108.098
1303729346916,108.073
1303729406916,107.952
1303729466916,107.721
1303729526916,108.251
1303729586916,108.168
1303729646916,107.944
1303729706916,107.698
1303729766916,107.780
1303729826916,107.497
1303729886916,107.845
1303729946916,107.931
1303730006916,107.966
1303730066916,107.919
1303730126916,107.526
1303730186916,107.681
1303730246916,107.182
1303730306916,107.977
1303730366916,108.000
1303730426916,107.789
1303730486916,107.697
1303730546916,107.506
1303730606916,107.545
1303730666916,107.251
1303730726916,107.670
1303730786916,107.876
1303730846916,107.483
1303730906916,107.815
1303730966916,107.690
1303731026916,107.491
1303731086916,107.846
1303731146916,107.542
1303731206916,107.594
1303731266916,108.192
1303731326916,107.466
1303731386916,107.552
1303731446916,108.144
1303731506916,107.651
1303731566916,107.899
1303731626916,107.463
1303731686916,107.489
1303731746916,107.258
1303731806916,107.760
1303731866916,107.693
1303731926916,107.515
1303731986916,107.626
1303732046916,107.886
1303732106916,107.780
1303732166916,107.250
1303732226916,107.329
1303732286916,107.541
1303732346916,107.511
1303732406916,107.771
1303732466916,108.170
1303732526916,107.319
1303732586916,108.351
1303732646916,107.735
1303732706916,108.216
1303732766916,107.903
1303732826926,108.226
1303732886926,107.941
1303732946926,107.472
1303733006926,107.882
1303733066926,108.003
1303733126926,108.449
1303733186926,108.207
1303733246926,108.376
1303733306926,108.295
1303733366926,108.110
1303733426926,108.308
1303733486926,108.295
1303733546926,107.792
1303733606926,108.025
1303733666926,108.178
1303733726926,108.484
1303733786926,108.332
1303733846926,108.224
1303733906926,108.163
1303733966926,108.078
1303734026926,107.988
1303734086926,108.460
1303734146926,108.233
1303734206926,108.389
1303734266926,108.449
1303734326926,107.955
1303734386926,108.186
1303734446926,108.677
1303734506926,108.396
1303734566926,108.239
1303734626926,109.188
1303734686926,108.385
1303734746926,108.565
1303734806926,108.610
1303734866926,108.601
1303734926926,108.757
1303734986926,108.402
1303735046926,108.611
1303735106926,108.444
1303735166926,108.537
1303735226926,108.331
1303735286926,108.926
1303735346926,108.466
1303735406926,108.472
1303735466926,109.070
1303735526926,109.099
1303735586926,108.631
1303735646926,108.987
1303735706926,108.917
1303735766926,108.877
1303735826926,108.876
1303735886926,108.938
1303735946926,108.715
1303736006926,108.886
1303736066926,108.833
1303736126926,108.845
1303736186926,108.628
1303736246926,108.803
1303736306926,108.873
1303736366926,109.349
1303736426937,108.933
1303736486937,109.152
1303736546937,108.708
1303736606937,109.119
1303736666937,108.628
1303736726937,108.834
1303736786937,108.240
1303736846937,109.067
1303736906937,109.155
1303736966937,109.112
1303737026937,108.227
1303737086937,109.010
1303737626937,108.347
1303737686937,109.468
1303737746937,109.314
1303737806937,108.949
1303737866937,108.916
1303737926937,109.206
1303737986937,109.283
1303738046937,109.005
1303738106937,108.915
1303738166937,108.627
1303738226937,108.806
1303738286937,108.458
1303738346937,108.877
1303738406937,108.535
1303738466937,109.232
1303738526937,108.943
1303738586937,108.952
1303738646937,109.548
1303738706937,109.087
1303738766937,109.197
1303738826937,109.547
1303738886937,109.333
1303738946937,109.119
1303739006937,109.124
1303739066937,109.308
1303739126937,108.974
1303739186937,109.426
1303739246937,109.379
1303739306937,109.519
1303739366937,109.213
1303739426937,109.164
1303739486937,109.368
1303739546937,108.653
1303739606937,109.198
1303739666937,109.274
1303739726937,109.054
1303739786937,108.858
1303739846937,108.965
1303739906937,108.796
1303739966937,108.817
1303740026947,109.421
1303740086947,109.019
1303740146947,108.780
1303740206947,109.151
1303740266947,109.150
1303740326947,108.767
1303740386947,108.946
1303740446947,108.559
1303740506947,108.766
1303740566947,108.530
1303740626947,108.632
1303740686947,109.308
1303740746947,108.681
1303740806947,108.370
1303740866947,108.698
1303740926947,108.403
1303740986947,109.408
1303741046947,108.748
1303741106947,108.612
1303741166947,108.775
1303741226947,108.518
1303741286947,109.089
1303741346947,108.847
1303741406947,108.906
1303741466947,108.941
1303741526947,108.831
1303741586947,108.757
1303741646947,108.465
1303741706947,109.025
1303741766947,108.400
1303741826947,109.010
1303741886947,108.486
1303741946947,109.013
1303742006947,108.700
1303742066947,109.187
1303742126947,109.245
1303742186947,108.874
1303742246947,109.175
1303742306947,108.912
1303742366947,108.937
1303742426947,108.849
1303742486947,109.271
1303742546947,108.885
1303742606947,109.245
1303742666947,110.776
1303742726947,109.156
1303742786947,109.433
1303742846947,109.248
1303742906947,109.088
1303742966947,109.414
1303743026947,109.453
1303743086947,109.791
1303743146947,109.388
1303743206947,109.847
1303743266947,109.891
1303743326947,109.619
1303743386947,109.124
1303743446947,109.464
1303743506947,109.285
1303743566947,109.461
1303743626957,109.898
1303743686957,110.360
1303743746957,109.757
1303743806957,109.336
1303743866957,110.170
1303743926957,109.820
1303743986957,109.446
1303744046957,109.796
1303744106957,110.494
1303744166957,110.091
1303744226957,109.930
1303744286957,110.170
1303744346957,109.765
1303744406957,109.919
1303744466957,110.105
1303744526957,110.761
1303744586957,110.473
1303744646957,109.985
1303744706957,109.796
1303744766957,110.170
1303744826957,109.924
1303744886957,110.570
1303744946957,110.031
1303745006957,110.485
1303745066957,110.269
1303745126957,110.376
1303745186957,110.161
1303745246957,109.973
1303745306957,109.937
1303745366957,109.521
1303745426957,110.273
1303745486957,110.259
1303745546957,110.091
1303745606957,110.532
1303745666957,110.404
1303745726957,109.922
1303745786957,110.028
1303745846957,110.539
1303745906957,110.417
1303745966957,110.678
1303746026957,110.242
1303746086957,110.409
1303746146957,110.073
1303746206957,110.511
1303746266957,110.919
1303746326957,110.659
1303746386957,110.467
1303746446957,110.411
1303746506957,110.416
1303746566957,110.273
1303746626957,110.225
1303746686957,110.163
1303746746957,110.299
1303746806957,110.259
1303746866957,110.470
1303746926957,110.184
1303746986957,110.282
1303747046957,110.530
1303747106957,110.697
1303747166957,110.434
1303747226967,110.489
1303747286967,110.338
1303747346967,110.567
1303747406967,110.895
1303747466967,111.043
1303747526967,111.527
1303747586967,110.197
1303747646967,110.946
1303747706967,110.490
1303747766967,110.911
1303747826967,110.527
1303747886967,110.492
1303747946967,110.404
1303748006967,110.507
1303748066967,110.563
1303748126967,110.778
1303748186967,110.540
1303748246967,110.234
1303748306967,110.822
1303748366967,110.720
1303748426967,110.229
1303748486967,109.939
1303748546967,110.480
1303748606967,110.187
1303748666967,110.144
1303748726967,110.044
1303748786967,110.513
1303748846967,110.211
1303748906967,109.708
1303748966967,109.896
1303749026967,110.205
1303749086967,109.993
1303749146967,109.967
1303749206967,110.584
1303749266967,109.654
1303749326967,109.859
1303749386967,109.731
1303749446967,110.061
1303749506967,109.372
1303749566967,109.773
1303749626967,109.823
1303749686967,109.414
1303749746967,109.486
1303749806967,110.367
1303749866967,109.848
1303749926967,109.916
1303749986967,109.944
1303750046967,109.695
1303750106967,109.635
1303750166967,109.756
1303750226967,110.344
1303750286967,110.002
1303750346967,109.671
1303750406967,109.454
1303750466967,109.778
1303750526967,109.864
1303750586967,110.095
1303750646967,110.495
1303750706967,110.171
1303750766967,109.848
1303750826977,110.029
1303750886977,109.408
1303750946977,109.737
1303751006977,109.837
1303751066977,109.352
1303751126977,109.894
1303751186977,109.143
1303751246977,109.692
1303751306977,109.769
1303751366977,108.977
1303751426977,109.431
1303751486977,109.639
1303751546977,109.760
1303751606977,110.176
1303751666977,109.895
1303751726977,109.616
1303751786977,109.742
1303751846977,110.230
1303751906977,110.012
1303751966977,109.912
1303752026977,110.340
1303752086977,110.206
1303752146977,110.489
1303752206977,110.057
1303752266977,110.537
1303752326977,110.134
1303752386977,109.640
1303752446977,110.201
1303752506977,109.787
1303752566977,110.127
1303752626977,110.057
1303752686977,109.900
1303752746977,109.970
1303752806977,109.967
1303752866977,109.866
1303752926977,109.663
1303752986977,109.930
1303753046977,109.437
1303753106977,109.466
1303753166977,109.661
1303753226977,109.804
1303753286977,109.696
1303753346977,109.638
1303753406977,109.657
1303753466977,109.250
1303753526977,109.655
1303753586977,109.476
1303753646977,108.776
1303753706977,109.382
1303753766977,109.066
1303753826977,109.242
1303753886977,109.171
1303753946977,108.922
1303754006977,108.660
1303754066977,108.878
1303754126977,108.129
1303754186977,108.528
1303754246977,108.918
1303754306977,108.254
1303754366977,109.253
1303754426987,108.925
1303754486987,107.865
1303754546987,108.328
1303754606987,108.495
1303754666987,108.818
1303754726987,108.482
1303754786987,108.191
1303754846987,108.119
1303754906987,108.514
1303754966987,108.176
1303755026987,108.550
1303755086987,108.692
1303755146987,108.299
1303755206987,108.048
1303755266987,107.382
1303755326987,107.949
1303755386987,107.419
1303755446987,108.226